When you browse on this site, cookies collect data to enhance your experience and personalize the content and advertising you see.
Visit our Privacy Policy to learn more. By continuing to use the site, you agree to this use of cookies and data.
  • In Portugal
  • List of Countries
  • For 7 days
  • Water Temperature
  • Satellite Maps
  • Weather Map
  • Weather Widgets
  • user-avatar
    Login

    Hourly Weather Dangriga

    Today, 11 December, Tuesday

    Time Temperature Precipitation Wind Pressure Humidity
    00:00 +21°C° 0 mm 7 mps 766 mmHg 85%
    01:00 +21°C° 0 mm 7 mps 766 mmHg 84%
    02:00 +21°C° 0 mm 7 mps 766 mmHg 83%
    03:00 +21°C° 0 mm 7 mps 766 mmHg 81%
    04:00 +20°C° 0 mm 7 mps 766 mmHg 81%
    05:00 +20°C° 0 mm 7 mps 766 mmHg 80%
    06:00 +20°C° 0 mm 7 mps 767 mmHg 80%
    07:00 +21°C° 0 mm 7 mps 767 mmHg 75%
    08:00 +22°C° 0 mm 7 mps 767 mmHg 70%
    09:00 +23°C° 0 mm 7 mps 768 mmHg 65%
    10:00 +26°C° 0 mm 6 mps 767 mmHg 60%
    11:00 +27°C° 0 mm 6 mps 767 mmHg 55%
    12:00 +28°C° 0 mm 6 mps 767 mmHg 50%
    13:00 +28°C° 0 mm 6 mps 766 mmHg 50%
    14:00 +28°C° 0 mm 6 mps 766 mmHg 51%
    15:00 +28°C° 0 mm 6 mps 765 mmHg 51%
    16:00 +27°C° 0 mm 6 mps 765 mmHg 58%
    17:00 +24°C° 0 mm 6 mps 765 mmHg 64%
    18:00 +23°C° 0 mm 6 mps 765 mmHg 71%
    19:00 +22°C° 0.1 mm 6 mps 766 mmHg 73%
    20:00 +22°C° 0.1 mm 6 mps 766 mmHg 75%
    21:00 +21°C° 0.1 mm 6 mps 766 mmHg 76%
    22:00 +21°C° 0.1 mm 6 mps 766 mmHg 78%
    23:00 +20°C° 0.1 mm 6 mps 766 mmHg 79%

    Tomorrow, 12 December, Wednesday

    Time Temperature Precipitation Wind Pressure Humidity
    00:00 +20°C° 0.1 mm 6 mps 766 mmHg 80%
    01:00 +19°C° 0 mm 6 mps 766 mmHg 81%
    02:00 +19°C° 0 mm 6 mps 765 mmHg 81%
    03:00 +19°C° 0 mm 6 mps 765 mmHg 81%
    04:00 +17°C° 0 mm 6 mps 765 mmHg 82%
    05:00 +17°C° 0 mm 5 mps 765 mmHg 82%
    06:00 +17°C° 0 mm 5 mps 765 mmHg 83%
    07:00 +20°C° 0 mm 5 mps 765 mmHg 75%
    08:00 +22°C° 0 mm 5 mps 765 mmHg 67%
    09:00 +25°C° 0 mm 4 mps 766 mmHg 60%
    10:00 +27°C° 0 mm 4 mps 765 mmHg 57%
    11:00 +28°C° 0 mm 4 mps 765 mmHg 54%
    12:00 +30°C° 0 mm 4 mps 764 mmHg 52%
    13:00 +29°C° 0 mm 4 mps 763 mmHg 54%
    14:00 +29°C° 0 mm 4 mps 762 mmHg 57%
    15:00 +29°C° 0 mm 5 mps 762 mmHg 59%
    16:00 +27°C° 0.1 mm 4 mps 762 mmHg 67%
    17:00 +26°C° 0.1 mm 4 mps 762 mmHg 74%
    18:00 +25°C° 0.1 mm 4 mps 762 mmHg 81%
    19:00 +23°C° 0.1 mm 4 mps 762 mmHg 83%
    20:00 +23°C° 0.1 mm 4 mps 762 mmHg 85%
    21:00 +23°C° 0.1 mm 4 mps 763 mmHg 88%
    22:00 +23°C° 0.1 mm 4 mps 762 mmHg 88%
    23:00 +23°C° 0.1 mm 4 mps 762 mmHg 89%

    Day after tomorrow, 13 December, Thursday

    Time Temperature Precipitation Wind Pressure Humidity
    00:00 +23°C° 0.1 mm 4 mps 762 mmHg 90%
    01:00 +22°C° 0.4 mm 4 mps 761 mmHg 91%
    02:00 +22°C° 0.4 mm 3 mps 761 mmHg 92%
    03:00 +22°C° 0.4 mm 3 mps 761 mmHg 94%
    04:00 +22°C° 0.4 mm 3 mps 761 mmHg 93%
    05:00 +22°C° 0.4 mm 3 mps 761 mmHg 93%
    06:00 +22°C° 0.4 mm 3 mps 761 mmHg 93%
    07:00 +24°C° 0.1 mm 2 mps 761 mmHg 90%
    08:00 +25°C° 0.1 mm 2 mps 762 mmHg 87%
    09:00 +26°C° 0.1 mm 1 mps 762 mmHg 84%
    10:00 +28°C° 0.3 mm 2 mps 761 mmHg 79%
    11:00 +29°C° 0.3 mm 2 mps 761 mmHg 74%
    12:00 +31°C° 0.3 mm 2 mps 760 mmHg 68%
    13:00 +31°C° 0 mm 3 mps 759 mmHg 65%
    14:00 +33°C° 0 mm 3 mps 759 mmHg 62%
    15:00 +33°C° 0 mm 3 mps 758 mmHg 58%
    16:00 +30°C° 0 mm 3 mps 758 mmHg 68%
    17:00 +28°C° 0 mm 2 mps 758 mmHg 79%
    18:00 +26°C° 0 mm 2 mps 758 mmHg 89%
    19:00 +26°C° 0 mm 2 mps 759 mmHg 91%
    20:00 +25°C° 0 mm 2 mps 759 mmHg 92%
    21:00 +25°C° 0 mm 2 mps 760 mmHg 94%
    22:00 +25°C° 0 mm 2 mps 760 mmHg 93%
    23:00 +25°C° 0 mm 3 mps 760 mmHg 92%

    14 December, Friday

    Time Temperature Precipitation Wind Pressure Humidity
    00:00 +25°C° 0 mm 3 mps 760 mmHg 91%
    01:00 +25°C° 0 mm 3 mps 759 mmHg 92%
    02:00 +25°C° 0 mm 3 mps 759 mmHg 93%
    03:00 +23°C° 0 mm 4 mps 759 mmHg 95%
    04:00 +24°C° 0.5 mm 3 mps 759 mmHg 95%
    05:00 +24°C° 0.5 mm 2 mps 760 mmHg 95%
    06:00 +24°C° 0.5 mm 1 mps 760 mmHg 95%
    07:00 +26°C° 1.1 mm 2 mps 761 mmHg 90%
    08:00 +27°C° 1.1 mm 2 mps 762 mmHg 85%
    09:00 +29°C° 1.1 mm 2 mps 762 mmHg 81%
    10:00 +30°C° 0.5 mm 3 mps 762 mmHg 73%
    11:00 +33°C° 0.5 mm 3 mps 762 mmHg 65%
    12:00 +34°C° 0.5 mm 4 mps 761 mmHg 57%
    13:00 +33°C° 0.4 mm 4 mps 761 mmHg 67%
    14:00 +30°C° 0.4 mm 4 mps 760 mmHg 77%
    15:00 +29°C° 0.4 mm 4 mps 760 mmHg 88%
    16:00 +27°C° 0.4 mm 5 mps 761 mmHg 90%
    17:00 +26°C° 0.4 mm 5 mps 761 mmHg 93%
    18:00 +23°C° 0.4 mm 6 mps 762 mmHg 96%
    19:00 +23°C° 0.3 mm 7 mps 763 mmHg 95%
    20:00 +23°C° 0.3 mm 7 mps 764 mmHg 94%
    21:00 +22°C° 0.3 mm 8 mps 764 mmHg 92%
    22:00 +22°C° 0.1 mm 8 mps 764 mmHg 90%
    23:00 +22°C° 0.1 mm 8 mps 765 mmHg 87%

    15 December, Saturday

    Time Temperature Precipitation Wind Pressure Humidity
    00:00 +22°C° 0.1 mm 8 mps 765 mmHg 85%
    01:00 +21°C° 0 mm 8 mps 765 mmHg 82%
    02:00 +21°C° 0 mm 7 mps 764 mmHg 79%
    03:00 +20°C° 0 mm 7 mps 764 mmHg 77%
    04:00 +20°C° 0 mm 7 mps 765 mmHg 76%
    05:00 +20°C° 0 mm 7 mps 765 mmHg 75%
    06:00 +20°C° 0 mm 6 mps 766 mmHg 74%
    07:00 +21°C° 0 mm 6 mps 767 mmHg 69%
    08:00 +22°C° 0 mm 6 mps 767 mmHg 63%
    09:00 +23°C° 0 mm 6 mps 768 mmHg 58%
    10:00 +25°C° 0 mm 5 mps 768 mmHg 56%
    11:00 +26°C° 0 mm 4 mps 767 mmHg 53%
    12:00 +27°C° 0 mm 4 mps 767 mmHg 51%
    13:00 +27°C° 0 mm 3 mps 766 mmHg 49%
    14:00 +28°C° 0 mm 3 mps 765 mmHg 48%
    15:00 +28°C° 0 mm 2 mps 765 mmHg 47%
    16:00 +26°C° 0 mm 2 mps 765 mmHg 55%
    17:00 +25°C° 0 mm 2 mps 765 mmHg 62%
    18:00 +23°C° 0 mm 2 mps 766 mmHg 70%
    19:00 +21°C° 0 mm 2 mps 766 mmHg 73%
    20:00 +21°C° 0 mm 2 mps 766 mmHg 75%
    21:00 +20°C° 0 mm 2 mps 767 mmHg 78%
    22:00 +20°C° 0 mm 2 mps 767 mmHg 78%
    23:00 +20°C° 0 mm 3 mps 766 mmHg 78%

    16 December, Sunday

    Time Temperature Precipitation Wind Pressure Humidity
    00:00 +20°C° 0 mm 3 mps 766 mmHg 78%
    01:00 +19°C° 0 mm 3 mps 766 mmHg 79%
    02:00 +19°C° 0 mm 4 mps 766 mmHg 80%
    03:00 +19°C° 0 mm 4 mps 765 mmHg 81%
    04:00 +17°C° 0 mm 5 mps 766 mmHg 82%
    05:00 +17°C° 0 mm 5 mps 766 mmHg 83%
    06:00 +17°C° 0 mm 5 mps 767 mmHg 84%
    07:00 +20°C° 0 mm 5 mps 767 mmHg 76%
    08:00 +22°C° 0 mm 5 mps 767 mmHg 68%
    09:00 +23°C° 0 mm 5 mps 768 mmHg 60%
    10:00 +26°C° 0 mm 5 mps 767 mmHg 56%
    11:00 +27°C° 0 mm 4 mps 766 mmHg 52%
    12:00 +29°C° 0 mm 4 mps 766 mmHg 47%
    13:00 +29°C° 0 mm 4 mps 765 mmHg 48%
    14:00 +29°C° 0 mm 4 mps 765 mmHg 49%
    15:00 +28°C° 0 mm 4 mps 764 mmHg 51%
    16:00 +27°C° 0 mm 4 mps 764 mmHg 56%
    17:00 +26°C° 0 mm 4 mps 765 mmHg 61%
    18:00 +25°C° 0 mm 4 mps 765 mmHg 67%
    19:00 +23°C° 0 mm 4 mps 765 mmHg 68%
    20:00 +23°C° 0 mm 4 mps 766 mmHg 70%
    21:00 +24°C° 0 mm 3 mps 766 mmHg 72%
    22:00 +22°C° 0 mm 3 mps 765 mmHg 73%
    23:00 +22°C° 0 mm 3 mps 765 mmHg 74%
    Show more